Showing default

COSMOS 864, 9509

Orbit data source: Space-Track

COSMOS 864, 9509 is a payload satellite owned by VMF (CIS) in LEO that was launched on Fri, 29 Oct 1976 UTC via a KOSMOS 11K65M launch vehicle from the Plesetsk Missile And Space Complex (PKMTR). Payload-class satellites include a variety of spacecraft equipped with specific instruments for various scientific and technological missions. These include communications satellites like Starlink; space stations such as the ISS; scientific satellites like the Hubble; Earth observation satellites from companies like Planet Labs, Umbra, and HawkEye 360; GPS; miniature CubeSats for education and research; and military/defense satellites.

Loading next visibility...
Identifier
9509, 1976-108A
Orbit
LEO
Country
Flag of CISCIS
Related business
Manufacturer
Omsk Av. Zav.
Mission
Spacecraft
Bus & Motor
KAUR-1 11F627, Unknown motor
Mass
800 kg wet, 800 kg dry
Launch date (UTC)
1976-10-29 (50 years ago)
Launch vehicle
KOSMOS 11K65M
Launch site
Plesetsk Missile And Space Complex (PKMTR)
Object type
Payload
Rocket body
Debris
Shape & HBR
Unknown
Radar Cross Section
Large (>1 m²)

Expand to show TLE details & history
Last TLE update: 2 days ago

TLE from 2 days ago
0 COSMOS 864
1  9509U 76108A   26171.41145360  .00000054  00000-0  39684-4 0  9999
2  9509  82.9399 147.1862 0030884 133.6155 338.4275 13.75581085490885
Epoch: 2026-06-20T09:52Z
TLE epoch observation values (Epoch: 2026-06-20T09:52:29.591Z)
Latitude
67.11312°
Longitude
-106.53247°
Altitude
970.087 km
Speed
7.383 km/s
True Right ascension
20h 40m 52s
True Declination
66° 59' 36"
Sunlit
Object was in daylight at epoch
Visualization orbit readout
Latitude
Unknown
Longitude
Unknown
Altitude
Unknown
Speed
Unknown
Apparent Right ascension
Unknown
Apparent Declination
Unknown
Sunlit
N/A
Visualization observer readout
Local Sidereal Time
00:39:45
Azimuth
Unknown
Elevation
Unknown
Doppler factor
Unknown
Orbital elements
Apogee altitude
999.465 km
Perigee altitude
954.035 km
Semi-major axis
7,354.887 km
Eccentricity
0.00309
Inclination
82.9399°
RAAN
147.1862°
Arg. of periapsis
133.6155°
True anomaly
338.29691°
Mean anomaly
338.4275°
Eccentric anomaly
338.36225°
Mean motion
3.44096 °/min
Orbital period
104.62 mins
BSTAR
0.000039684
Loading maneuver chart data...
Computing Atmospheric mass density...
Loading historical data...
Loading historical data...
Loading historical data...
Loading historical data...
Loading historical data...
Loading historical data...
Loading historical data...
Other satellites on launch #108 in the year 1976 (1976-10-29 UTC)

Documentation

Showing up to 5 results
|